C/2024 F2 ( PanSTARRS )

Japanese version
Home page
Updated on June 29, 2024

---------------------------------------------------------------------

* Profile

Discovery Date March 21, 2024
Magnitude 21.0 mag
Discoverer Pan-STARRS 1 telescope (Haleakala)

* Pictures

* Orbital Elements

Epoch 2024 Mar. 31.0 TT = JDT 2460400.5
T 2024 July 29.21147 TT                                 Rudenko
q   3.9682877            (2000.0)            P               Q
n   0.03139661     Peri.  112.91388     -0.29389268     +0.94302696
a   9.9513248      Node   138.95443     -0.94070943     -0.25644640
e   0.6012302      Incl.   13.74042     -0.16938968     -0.21197970
P  31.4
>From 149 observations 2024 Mar. 21-June 13, mean residual 0".4.

* Magnitudes Graph

        m1 = 10.5 + 5 log d + 10.0 log r

---------------------------------------------------------------------

The orbital elements are published on M.P.E.C. 2024-M41.
The magnitudes graphs are made with Comet for Windows.

---------------------------------------------------------------------

Copyright(C) Seiichi Yoshida (comet@aerith.net). All rights reserved.